sat.trackr.live / text

‹ back to catalog

STARLINK-5243

NORAD 54167 · 2022-141L

PAYLOAD ACTIVE UNKNOWN

§ Identity

Operator
Country
US
Launch date
2022-10-28
Launch site
AFWTR
Launch vehicle
Mass (kg)
RCS (m²)

Purposes: comms

External: N2YO · Heavens-Above · Gunter

§ Orbital elements

Epoch: 2026-05-24T22:53:24.604800Z

Period
95.44 min
Inclination
53.2167°
Eccentricity
0.0001333
Mean motion
15.08841548 rev/d
Perigee alt
538.8 km
Apogee alt
540.7 km
Semi-major
6,917.9 km
B*
6.8264e-5
RAAN
31.5374°
Arg perigee
95.7246°
Mean anomaly
264.3898°
Rev number
19,723

§ Raw data

STARLINK-52431 54167U 22141L   26144.95375700  .00000799  00000+0  68264-4 0  99902 54167  53.2167  31.5374 0001333  95.7246 264.3898 15.08841548197231

JSON: /api/v1/satellites/54167 · /tle

For live sub-satellite position, see the globe view (requires WebGL).

§ Visibility from observer

Set your observer location to see the next 7 days of passes ≥ 10°. The values pass through the URL so the page stays shareable.

No JS? Fill the form by hand. The geolocation button needs JavaScript.